Theta_e
352 359 365 365 363 362 363 363 363 362 362 363 363 363 362 362 361 359 359 361 362 362 358 356 355 356 356 355 355 355 356 355 353 354 353 353 353 352 350 350 350 347 349
355 360 364 364 363 363 362 362 362 361 361 361 361 361 360 360 359 360 361 362 361 360 356 355 354 354 353 354 353 353 353 354 356 354 354 354 354 351 351 349 349 348 349
355 359 362 364 363 362 361 361 361 361 360 360 360 360 359 360 361 361 361 361 360 359 356 354 354 353 353 353 353 352 353 354 354 353 353 350 350 353 350 348 349 350 349
356 359 360 364 363 362 361 360 360 360 359 359 358 359 360 360 361 361 361 360 358 357 355 354 354 354 353 353 353 354 355 354 353 350 346 346 349 352 352 348 349 349 349
356 358 360 364 363 361 360 360 359 359 359 358 358 359 359 360 360 360 360 359 356 356 353 354 355 355 354 354 354 354 355 355 352 352 350 348 344 349 351 349 348 348 348
355 357 360 361 362 361 360 360 359 359 359 358 358 358 359 359 359 360 360 358 357 354 353 354 355 355 355 354 354 355 353 352 350 343 343 343 350 347 352 350 350 350 348
353 358 358 360 362 361 360 359 360 359 359 358 358 358 358 358 359 359 359 358 357 355 353 354 355 355 354 354 354 354 352 349 347 342 338 344 345 349 355 354 352 352 352
354 358 358 362 361 360 360 359 359 358 358 359 358 358 358 358 358 358 358 358 357 356 354 354 354 354 354 354 354 353 352 351 347 341 338 337 345 348 353 356 355 355 353
356 356 357 358 359 360 359 359 359 358 358 358 357 357 357 358 358 358 357 357 356 355 355 355 354 353 353 353 352 351 352 350 345 342 339 339 341 348 352 356 357 357 357
354 355 355 355 356 355 356 359 358 358 357 356 357 357 357 358 358 358 354 355 355 354 353 354 353 353 352 352 351 351 352 350 343 341 340 339 344 346 352 357 357 358 357
351 353 354 354 354 354 354 356 358 358 358 357 357 357 354 352 354 356 354 355 354 353 352 352 353 353 352 352 351 350 349 344 342 340 339 340 344 346 349 358 358 359 357
345 349 352 352 352 353 353 354 353 354 354 353 353 353 350 349 350 352 354 354 355 354 353 352 352 352 351 346 342 341 335 334 333 335 336 342 346 346 348 352 356 358 358
345 347 350 351 352 352 353 352 352 353 351 351 351 350 348 348 350 350 349 352 350 353 349 348 345 343 342 342 340 338 337 335 333 334 336 344 346 346 351 353 354 355 357
345 347 348 351 351 351 352 350 350 350 350 349 350 349 347 345 345 346 344 344 344 344 342 343 342 342 341 341 340 339 338 337 337 338 339 347 348 349 353 359 358 358 357
344 346 348 349 350 350 350 350 350 349 349 348 349 350 348 344 343 343 343 342 342 343 342 341 341 341 340 340 340 340 339 339 339 339 340 342 344 345 348 354 357 358 358
344 345 348 349 349 350 348 348 349 349 348 348 348 349 348 345 341 342 341 341 341 342 340 340 340 340 339 338 337 336 336 338 340 340 341 341 340 342 346 351 355 357 358
342 344 345 346 347 348 346 347 346 346 347 347 347 349 348 343 342 340 341 337 338 337 336 337 336 336 337 338 336 336 336 336 337 338 339 339 342 344 347 350 351 355 356
339 340 342 344 344 343 341 340 341 342 342 342 343 346 345 343 343 339 339 337 337 337 336 336 334 333 334 335 336 336 335 336 335 337 339 339 341 340 343 342 345 347 350
338 339 340 341 341 337 335 338 338 340 340 342 343 344 344 344 341 338 339 338 337 336 335 336 336 336 331 331 332 333 333 334 336 334 333 337 339 337 329 331 339 338 340
336 338 339 338 337 333 334 338 334 335 337 340 342 342 343 342 340 338 337 337 337 335 334 334 334 335 333 332 332 333 332 331 331 331 331 332 331 325 323 325 325 326 332
336 335 335 334 332 331 330 335 334 332 334 335 340 342 342 342 339 338 338 337 336 335 333 334 333 331 330 331 329 329 330 333 331 329 330 327 323 322 324 325 325 324 323
336 336 335 333 330 332 331 330 334 333 333 334 335 338 339 340 342 341 338 336 335 333 333 333 331 329 329 331 327 321 318 316 320 325 325 321 319 321 323 325 325 326 326
337 336 336 333 330 331 330 329 328 331 331 332 331 332 335 339 341 338 336 336 335 333 331 331 331 330 327 328 330 322 313 311 315 323 324 324 325 322 323 323 325 326 325
334 335 336 333 329 329 330 329 327 326 326 329 330 331 334 335 337 334 333 332 332 330 329 331 332 331 328 325 323 326 322 319 317 317 320 321 323 323 324 323 323 324 325
332 333 331 327 327 327 329 329 328 327 329 331 331 330 331 331 332 333 332 332 331 329 330 330 327 327 327 324 323 322 322 321 321 318 311 313 318 319 321 321 322 322 323
327 323 324 327 325 327 328 330 330 329 330 330 329 328 327 329 330 329 330 329 326 326 326 325 324 323 321 320 320 320 319 317 314 316 312 312 311 315 317 319 320 320 321
Wind_Speed
7 12 17 16 17 19 20 19 18 19 20 19 20 20 19 19 18 18 17 16 14 14 13 11 10 10 11 11 11 11 11 11 12 12 12 11 11 10 9 8 9 7 9
14 14 19 17 17 19 20 20 19 18 18 19 19 19 18 18 18 17 16 14 14 14 13 12 12 11 10 11 11 10 10 9 9 10 8 8 7 8 9 8 8 7 8
15 14 14 17 17 18 19 20 20 19 18 18 17 18 18 17 17 15 14 12 12 13 12 11 11 10 10 11 11 10 9 7 6 7 7 3 1 6 8 8 8 8 7
13 13 12 16 16 17 17 18 19 19 19 18 18 17 16 15 14 13 12 11 11 12 11 11 11 10 9 9 9 8 7 7 5 5 2 3 3 4 6 7 8 8 9
12 10 12 16 16 17 18 17 18 19 19 18 18 17 16 14 12 11 9 8 10 10 9 9 9 8 8 8 6 5 5 3 2 1 3 3 3 5 6 7 8 9 9
11 11 17 19 16 15 17 16 16 17 17 17 16 16 15 14 13 11 9 8 8 9 8 8 7 6 6 6 5 4 3 1 2 2 3 6 7 6 8 9 10 10 10
12 12 15 18 17 17 18 16 14 14 15 16 16 15 15 14 12 10 9 9 8 7 7 6 5 4 4 3 3 2 1 3 2 2 3 2 6 10 10 10 11 10 11
15 12 12 18 18 17 16 15 14 13 13 14 15 15 14 13 12 10 9 7 7 7 6 4 3 2 1 0 2 3 5 6 5 5 5 4 3 7 9 10 10 11 13
15 14 10 10 15 19 19 17 15 13 11 12 13 14 14 13 13 11 9 8 6 5 5 3 1 0 2 3 4 5 6 8 5 4 6 4 8 7 11 10 12 13 13
13 13 13 11 10 10 11 18 17 16 14 13 13 13 12 12 11 11 9 7 7 5 4 3 2 3 4 4 5 5 7 7 3 4 4 5 11 12 10 13 13 13 14
11 12 13 13 10 9 9 12 15 17 16 15 15 15 12 6 6 7 7 6 6 6 5 6 6 4 4 5 5 7 9 3 5 3 3 8 12 12 11 10 14 15 15
12 11 11 11 13 10 8 8 8 10 8 8 8 9 7 7 7 7 8 9 7 7 6 4 3 3 4 3 4 7 4 5 4 5 4 10 12 14 13 13 15 17 17
10 9 10 10 10 9 8 8 6 5 5 6 9 8 7 6 6 5 4 5 5 6 2 3 4 2 2 2 3 2 3 3 3 3 7 14 15 17 16 14 15 15 15
12 10 11 10 10 8 9 9 10 8 7 6 8 10 7 5 6 5 3 3 2 2 4 3 1 2 3 3 4 3 2 0 0 1 4 13 15 16 16 12 11 12 14
16 13 13 13 12 9 9 7 9 8 7 8 7 8 7 6 5 4 4 3 4 4 5 5 4 4 3 3 1 2 1 1 2 1 1 6 14 16 18 17 13 12 13
13 14 13 13 10 9 8 9 8 6 6 5 4 5 6 4 4 4 5 6 4 5 5 5 4 4 5 4 4 4 3 3 2 1 2 3 7 10 17 17 14 12 12
12 12 14 12 10 10 7 7 4 3 4 4 3 5 5 4 5 4 3 4 5 4 6 5 4 3 1 2 3 5 3 3 2 2 3 3 3 4 12 15 13 12 12
10 14 12 10 11 8 5 4 4 4 4 4 4 5 8 8 8 7 5 5 5 5 4 3 3 2 3 2 3 4 4 2 4 3 2 3 3 5 11 15 12 10 10
14 13 12 10 11 7 6 5 4 5 4 4 5 6 8 9 9 8 7 6 7 4 4 4 4 4 4 3 3 7 6 5 5 5 4 4 6 4 5 9 11 11 11
9 8 8 7 7 6 5 4 3 3 3 3 4 5 9 8 10 8 6 8 8 6 4 2 3 4 3 1 2 5 5 5 3 5 5 6 5 8 6 6 5 5 10
6 7 11 11 9 8 3 5 3 3 2 2 4 9 6 5 7 7 6 5 5 3 4 6 2 2 2 1 1 3 5 7 6 7 7 6 8 8 7 4 3 3 5
15 13 10 9 8 7 4 3 3 3 2 1 2 3 5 4 5 4 4 5 5 4 6 5 3 2 2 3 1 0 3 4 3 7 6 7 10 5 4 3 4 5 5
17 17 14 11 8 6 7 5 3 3 2 2 1 2 2 5 6 5 4 4 5 6 5 3 4 4 2 0 4 1 0 3 3 2 4 4 5 4 4 5 5 5 6
18 12 13 9 8 6 8 5 4 3 3 2 3 2 4 4 4 5 6 5 6 4 4 4 4 3 3 3 1 5 1 2 3 6 2 4 3 4 4 4 5 7 9
10 10 7 8 7 6 6 5 4 3 2 2 2 5 3 3 3 4 4 4 4 3 3 4 3 3 3 2 3 2 2 1 4 5 9 7 3 3 4 5 7 7 9
7 7 7 9 6 6 6 6 5 4 2 3 3 3 3 2 2 2 3 3 2 3 3 3 2 3 1 0 1 2 3 3 2 4 4 7 12 8 4 6 6 7 7
Wind_Direction
177 149 152 149 141 134 126 121 116 114 115 117 121 123 125 129 133 136 139 141 142 140 138 132 124 117 118 120 118 119 123 126 134 127 127 134 139 138 141 139 136 145 141
140 149 152 148 141 132 126 124 121 118 117 120 123 124 127 131 136 139 142 143 143 144 140 136 133 128 126 124 122 125 124 129 131 129 134 143 149 149 154 152 151 160 144
138 143 148 145 139 130 128 128 127 127 126 124 125 128 132 135 138 140 139 141 141 142 141 138 132 130 131 130 130 130 128 130 124 137 147 129 143 179 171 166 164 165 154
135 139 140 139 133 131 131 131 131 131 131 130 130 132 132 132 135 136 136 140 140 142 140 136 133 131 129 124 123 123 130 128 133 140 132 173 198 157 186 185 177 182 175
124 121 141 136 135 136 136 134 134 135 134 133 134 133 129 127 126 126 126 127 133 132 132 130 126 125 126 127 123 123 114 114 131 266 276 252 230 201 213 210 199 200 194
115 124 147 143 132 133 134 133 134 134 132 133 133 131 130 126 122 119 117 118 125 130 133 130 120 124 128 129 132 127 116 90 11 340 298 264 229 226 209 223 219 213 209
122 134 145 144 138 141 140 136 133 134 136 137 136 132 129 125 119 117 121 125 126 128 130 124 116 119 121 130 142 159 252 307 320 298 301 288 232 216 207 219 231 232 224
129 133 142 142 140 140 137 137 135 139 141 140 138 136 133 131 130 128 125 122 118 114 111 106 107 117 126 331 333 320 312 313 334 328 328 347 323 236 225 218 232 240 235
135 137 138 145 145 144 143 140 138 143 142 142 139 137 140 143 142 143 144 138 128 121 115 106 94 330 316 324 319 316 322 332 355 339 325 330 316 307 254 237 235 240 238
142 145 150 150 151 147 146 146 149 150 145 143 141 142 148 153 152 153 155 151 142 138 148 161 202 257 267 290 307 316 326 330 316 302 299 294 295 296 284 244 240 242 240
156 156 161 154 151 145 146 160 152 153 152 154 154 157 154 155 152 153 150 153 155 172 186 199 214 239 287 296 309 323 328 323 316 290 277 280 283 288 278 255 245 246 242
169 169 165 162 161 152 154 155 153 160 161 162 166 167 158 156 159 161 165 168 182 195 208 223 248 301 334 346 341 344 332 323 318 304 288 282 282 285 276 264 253 249 246
163 172 173 164 168 160 155 161 164 163 162 172 170 166 162 161 170 166 170 177 180 192 120 39 35 40 348 309 306 287 290 300 285 296 311 319 311 303 297 286 274 266 257
171 173 177 178 176 167 165 173 174 175 179 180 183 177 168 164 171 161 167 166 91 104 122 120 139 214 236 250 251 265 271 231 207 350 349 352 338 327 312 298 284 273 258
173 177 182 179 185 182 169 171 179 185 183 187 179 179 174 172 170 150 143 149 159 152 148 151 169 177 178 156 157 158 123 11 343 331 178 340 323 323 313 313 303 288 279
174 183 180 190 190 178 178 178 185 189 182 174 174 169 169 152 149 155 162 161 151 159 145 137 145 150 148 140 157 166 197 190 194 164 317 299 289 306 299 294 294 293 285
188 179 187 188 185 188 189 176 164 168 143 147 145 143 145 131 146 125 144 139 150 138 125 114 128 131 270 188 228 236 237 254 238 219 166 266 301 302 299 302 309 301 301
172 186 181 183 186 185 173 151 132 138 135 141 142 145 156 162 159 142 152 153 162 149 122 132 171 189 201 232 277 254 258 246 247 275 297 271 294 5 304 299 306 308 294
184 176 185 183 183 159 139 132 127 135 139 148 147 162 165 168 160 147 164 164 158 159 150 192 213 219 237 214 325 315 303 303 291 310 298 320 325 270 268 284 282 296 296
182 180 178 180 169 144 136 120 98 113 136 150 159 177 168 165 157 152 170 179 179 182 181 268 240 229 272 159 260 276 271 270 278 282 286 279 264 260 254 262 274 293 313
171 180 188 179 172 156 149 156 140 141 133 154 156 168 154 129 146 172 194 177 150 119 204 215 231 295 290 179 43 281 264 253 256 244 253 258 276 270 250 261 311 320 316
191 197 194 195 177 178 130 109 113 136 171 141 167 149 124 143 185 187 182 166 171 144 216 193 168 181 221 197 191 28 329 337 285 253 257 253 247 243 269 316 327 326 330
192 201 200 195 182 162 131 115 91 103 87 107 258 92 188 174 196 173 179 193 163 197 213 158 195 184 210 242 223 165 132 255 317 305 253 259 298 324 338 334 330 328 316
202 190 199 188 160 147 143 142 149 187 167 193 174 170 193 176 178 165 187 171 189 178 178 182 191 184 153 224 259 237 242 197 279 305 261 278 263 282 314 305 307 313 300
176 187 168 117 119 123 136 140 156 194 201 167 150 188 133 181 169 178 183 165 169 186 186 188 123 171 179 172 187 175 191 241 234 236 287 292 276 285 309 308 303 293 290
117 104 101 111 115 135 148 155 163 201 180 140 158 149 128 107 71 102 111 125 135 112 123 116 117 93 74 30 245 216 200 216 227 249 275 290 294 304 294 276 268 274 276